Location: Piolenc
(44.1794°N, 4.7641°E)
Time: 04:46:34
(UTC+00:00)

H-2A R/B - Pass Details

Date: 27 January 2021
Orbit: 504 x 534 km, 97.3° (Epoch: 25 February)

Event Time Altitude Azimuth Distance (km) Brightness Sun altitude
Rises 05:23:21 0° 10° (N) 2,638 6.3 -18.0°
Reaches altitude 10° 05:25:26 10° 9° (N) 1,751 5.4 -17.7°
Maximum altitude 05:29:13 75° 284° (WNW) 543 2.5 -17.0°
Drops below altitude 10° 05:32:59 10° 199° (SSW) 1,754 5.3 -16.3°
Sets 05:35:05 0° 198° (SSW) 2,643 6.2 -16.0°
